www.pogodaiklimat.ru

Погода и климат >> Архив погоды >> Украина >> Одесса


АРХИВ ПОГОДЫ в Одессе

Время (UTC), дата Ветер
(напр.,м/с)
 
Видим.   Явления Облачность Т
(С)
Тd
(С)
f
(%)
Тe
(С)
Тes
(С)
Комфортность P
(гПа)
Po
(гПа)
Тmin
(С)
Tmax
(С)
R
(мм)
R24
(мм)
S
(см)
12 11.10 штиль 0 18 км ясно +18.7 +10.0 57 +19 +26 тепло 1026.1 1021.1
15 11.10 штиль 0 40 км ясно +16.3 +8.5 60 +16 +16 тепло 1025.5 1020.4
18 11.10 С 1 50 км ясно +16.6 +7.8 56 +18 +18 тепло 1026.2 1021.1 +19.8
21 11.10 СВ 4 28 км ясно +14.5 +8.2 66 +13 +13 тепло 1026.9 1021.8
00 12.10 С 1 30 км ясно +12.0 +7.1 72 +12 +12 тепло 1027.3 1022.2
03 12.10 С 1 14 км ясно +10.9 +7.4 79 +11 +11 по сезону 1027.9 1022.7
06 12.10 С 2 16 км ясно +13.1 +8.2 72 +12 +14 по сезону 1029.3 1024.2 +10.2
09 12.10 СВ 4 14 км ясно +16.6 +9.3 62 +16 +20 тепло 1030.3 1025.2
12 12.10 В 4 22 км ясно +17.9 +11.2 65 +18 +21 тепло 1029.7 1024.7
15 12.10 СВ 4 35 км ясно +17.5 +10.1 62 +17 +17 тепло 1029.4 1024.3
18 12.10 В 7 30 км 3/0
[Ci fib]
+16.5 +9.0 61 +15 +15 тепло 1030.2 1025.1 +18.6
21 12.10 В 5 35 км 4/0 <50 м
[Ac und Ci fib]
+15.2 +7.0 58 +14 +14 тепло 1031.0 1025.9
00 13.10 СВ 7 35 км 3/0
[Ci fib]
+13.2 +6.3 63 +11 +11 по сезону 1031.0 1025.9
03 13.10 СВ 7 35 км 3/0
[Ci fib]
+11.3 +5.2 66 +8 +8 по сезону 1030.8 1025.6
06 13.10 СВ 8 30 км ясно +11.6 +5.3 65 +8 +9 по сезону 1031.7 1026.5 +10.1
09 13.10 СВ 10 45 км ясно +14.5 +3.0 46 +12 +12 по сезону 1031.4 1026.3
12 13.10 СВ 7 40 км ясно +17.2 +2.0 36 +16 +18 тепло 1030.0 1024.9
15 13.10 СВ 6 50 км ясно +16.8 +6.0 49 +16 +16 тепло 1029.5 1024.4
18 13.10 СВ 6 35 км ясно +15.3 +2.1 41 +14 +14 тепло 1030.2 1025.1 +17.6
21 13.10 СВ 4 35 км ясно +12.5 +4.0 56 +11 +11 по сезону 1030.4 1025.2
00 14.10 СВ 5 29 км ясно +12.8 +5.7 62 +11 +11 по сезону 1030.2 1025.1
03 14.10 С 3 23 км ясно +10.9 +5.0 67 +9 +9 по сезону 1029.9 1024.7
06 14.10 С 3 35 км 3/0
[Ci fib]
+13.1 +5.3 59 +12 +13 тепло 1030.1 1025.0 +9.5
09 14.10 СВ 5 20 км 1/1 600 м
[Cu hum]
+16.3 +5.3 48 +15 +18 тепло 1030.2 1025.1
12 14.10 СВ 3 30 км 4/1 600 м
[Cu hum Ci fib]
+18.6 +4.7 40 +19 +22 тепло 1028.3 1023.3
15 14.10 СВ 4 50 км 4/0
[Ci fib]
+17.5 +8.6 56 +17 +17 тепло 1027.6 1022.6
18 14.10 С 1 50 км 4/0
[Ci fib]
+16.0 +4.4 46 +17 +17 тепло 1027.7 1022.6 +19.5
21 14.10 СЗ 1 50 км ясно +13.1 +6.0 62 +13 +13 тепло 1028.5 1023.4
00 15.10 С 1 40 км ясно +11.3 +5.4 67 +11 +11 по сезону 1028.5 1023.3
03 15.10 СЗ 1 20 км ясно +10.3 +3.6 63 +10 +10 по сезону 1027.9 1022.7
06 15.10 С 2 21 км ясно +12.5 +4.0 56 +12 +13 тепло 1027.6 1022.5 +9.9
09 15.10 С 1 18 км 8/1 600 м
[Sc Ci fib]
+18.1 +6.0 45 +19 +25 тепло 1027.6 1022.6
12 15.10 В 2 23 км 6/1 600 м
[Sc Ci fib]
+18.8 +7.6 48 +20 +23 тепло 1026.5 1021.5
15 15.10 СВ 1 30 км 4/0
[Ci fib]
+16.0 +7.5 57 +17 +17 тепло 1025.7 1020.6
18 15.10 С 1 27 км ясно +16.4 +8.1 58 +17 +17 тепло 1025.8 1020.7 +19.3
21 15.10 С 1 35 км ясно +14.3 +10.7 79 +15 +15 тепло 1026.0 1020.9
00 16.10 С 1 19 км ясно +12.7 +7.8 72 +13 +13 тепло 1025.9 1020.8
03 16.10 С 2 18 км ясно +11.5 +7.6 77 +10 +10 по сезону 1025.6 1020.5
06 16.10 С 2 15 км 3/0
[Ci fib]
+15.0 +9.4 69 +15 +16 тепло 1026.1 1021.0 +11.5
09 16.10 СВ 3 35 км ясно +18.4 +9.5 56 +19 +24 тепло 1025.9 1020.9
12 16.10 В 3 35 км ясно +19.3 +11.1 59 +21 +24 комфорт 1025.0 1020.0
15 16.10 С 1 35 км ясно +18.8 +8.5 51 +20 +20 тепло 1024.2 1019.2
18 16.10 штиль 0 30 км ясно +17.0 +10.8 67 +17 +17 тепло 1024.8 1019.8 +20.8
21 16.10 С 1 14 км ясно +15.3 +10.9 75 +16 +16 тепло 1025.0 1019.9
00 17.10 С 2 13 км ясно +14.4 +10.2 76 +14 +14 тепло 1024.6 1019.5
03 17.10 С 2 14 км ясно +13.0 +10.4 84 +12 +12 тепло 1024.2 1019.1
06 17.10 СВ 2 18 км ясно +15.2 +10.4 73 +15 +16 тепло 1024.7 1019.6 +12.8
09 17.10 СВ 4 26 км ясно +18.5 +11.8 65 +19 +23 тепло 1024.3 1019.3
12 17.10 СВ 4 19 км ясно +18.7 +12.7 68 +19 +22 тепло 1022.8 1017.8
15 17.10 СВ 4 40 км ясно +19.3 +10.0 55 +20 +20 тепло 1022.2 1017.2
18 17.10 СВ 4 25 км ясно +17.9 +10.3 61 +18 +18 тепло 1022.5 1017.5 +20.2
21 17.10 СВ 2 18 км ясно +16.0 +12.9 82 +16 +16 тепло 1022.6 1017.6
00 18.10 С 2 20 км ясно +13.8 +10.8 82 +13 +13 тепло 1022.3 1017.2
03 18.10 СВ 5 18 км ясно +14.1 +9.9 76 +12 +12 тепло 1021.6 1016.5
06 18.10 СВ 3 14 км ясно +14.3 +9.7 74 +13 +14 тепло 1021.6 1016.5 +11.9
09 18.10 В 4 11 км ясно +16.2 +10.7 70 +16 +19 тепло 1021.4 1016.4

 

Местоположение метеостанции Одесса (Одесская область, Украина): широта 46.43 долгота 30.77 высота над уровнем моря 42 м.

В архиве по умолчанию представлена погода в Одессе за последнюю неделю. Архивные данные за месяц целиком и за предыдущие месяцы, начиная с января 2011 года, Вы можете получить, выбрав интересующий диапазон дат из раскрывающегося списка и нажав кнопку "Ввод!".


*Определитесь, кто Вы:
робот инопланетянин человек

Внимание! Время в таблицах - всемирное. Для получения местного времени необходимо прибавить поправку, которая в Одессе равна 2 ч.

Смотрите также архив погоды в соседних городах и на ближайших метеорологических станциях:

Погода в Ильичёвске (Одесская область, Украина) (6 км)
Погода в Белгород-Днестровском (Одесская область, Украина) (41 км)
Погода в Очакове (Николаевская область, Украина) (64 км)
Погода в Сербке (Одесская область, Украина) (66 км)
Погода в Раздельной (Одесская область, Украина) (70 км)
Погода в Заставе (Одесская область, Украина) (72 км)
Погода в Сарате (Одесская область, Украина) (96 км)
Погода в Штефан Водэ (Молдова) (99 км)
Погода в Тирасполе (Молдова) (103 км)
Погода в Николаеве (Николаевская область, Украина) (112 км)

Пояснения к столбцам:

Ветер - указаны скорость ветра в м/с - средняя за 10 мин, порывы в срок и между сроками (в фигурных скобках) и направление, откуда дует ветер: С - северный, СВ - северо-восточный, В - восточный, ЮВ - юго-восточный, Ю - южный, ЮЗ - юго-западный, З - западный, СЗ - северо-западный.
Видимость - горизонтальная дальность видимости в метрах или километрах. При видимости от 1 до 10 км при отсутствии осадков обычно наблюдается дымка, при ухудшении видимости до 1 км и менее - туман. В сухую погоду видимость может ухудшаться дымом, пылью или мглою.
Явления - указаны атмосферные явления, наблюдавшиеся в срок или в последний час перед сроком; фигурными скобками обозначены явления, наблюдавшиеся между сроками (за 1-3 часа до срока); квадратными скобками обозначены град или гололедные отложения с указанием их диаметра в мм.
Облачность - указаны через наклонную черту общая и нижняя облачность в баллах и высота нижней границы облаков в метрах; квадратными скобками обозначены формы облаков: Ci - перистые, Cs - перисто-слоистые, Cc - перисто-кучевые, Ac - высококучевые, As - высокослоистые, Sc - слоисто-кучевые, Ns - слоисто-дождевые, Cu - кучевые, Cb - кучево-дождевые. Подробнее классификацию облаков см. в Атласе облаков (PDF).
T - Температура воздуха - температура, измеренная на высоте 2 м над землей.
Td - Температура точки росы - температура, при понижении до которой содержащийся в воздухе водяной пар достигнет насыщения.
f - Относительная влажность воздуха - влажноcть воздуха, измеренная на высоте 2 м над землей.
Te - Эффективная температура - температура, которую ощущает одетый по сезону человек в тени. Характеристика душности погоды. При расчете учитывается влияние влажности воздуха и скорости ветра на теплоощущения человека.
Tes - Эффективная температура на солнце - температура, которую ощущает человек, с поправкой на солнечный нагрев. Характеристика знойности погоды. Зависит от высоты солнца над горизонтом, облачности и скорости ветра. Ночью, в пасмурную погоду, а также при ветре 12 м/с и более поправка равна нулю.
P - Атмосферное давление - приведенное к уровню моря атмосферное давление.
Po - Атмосферное давление - измеренное на уровне метеостанции атмосферное давление.
Tmin - Минимальная температура - минимум температуры воздуха на высоте 2 м над землей.
Tmax - Максимальная температура - максимум температуры воздуха на высоте 2 м над землей.
R - Количество осадков - Количество выпавших осадков за период времени, мм. При наведении курсора мыши на число - период времени, за который выпало указанное количество осадков.
R24 - Количество осадков - Количество выпавших осадков за 24 часа, мм.
S - Снежный покров - Высота снежного покрова, см. При наведении курсора мыши на число - состояние снежного покрова и степень покрытия местности в баллах.